SL-8 R/B

Satellite information

Favourite Embed

Satellite Type and Status

ROCKET BODYIN ORBIT

Key statistics

Satellite SL-8 R/B at a glance.

Uptime

15517

Days in orbit

Revolutions

≈ 13.8

Per day

Orbit

LEO

Low Earth Orbit

Inclination

83.0

Latest

Satellite identification and parameters

Extended collection of information and parameters for SL-8 R/B.

Object identification

Identified? True

Debris? False

Object name: SL-8 R/B

International designator: 1983-042B

Object number (NORAD): 14059

Object ID (CCSDS): 14059

Country: COMMONWEALTH OF INDEPENDENT STATES (CIS)

Current information (Y/N): Y

RCS size: LARGE

Orbital parameters

Period: 104.417 minutes

Inclination: 82.9694 deg

SMA: 7345.25 km

Apoapsis: 997.624 km

Periapsis: 936.607 km

RAAN: 313.4485 deg

Eccentricy: 0.00415352

Argument of periapsis: 324.754 deg

Mean anomaly: 35.0873 deg

Mean motion: 13.79090779 rev/day

Mean motion (dot): 0.00000188 rev/day2

B* drag term: 0.00016779961 1/REarth

Two-line elements (TLE)

Creation date: Oct. 28, 2025, 7:11 p.m.

Reference frame: TEME

Reference center: EARTH

Epoch: Oct. 28, 2025, 12:17 p.m. UTC

TLE line 0: 0 SL-8 R/B

TLE line 1: 1 14059U 83042B 25301.51190977 .00000188 00000-0 16780-3 0 9998

TLE line 2: 2 14059 82.9694 313.4485 0041535 324.7540 35.0873 13.79090779136514

Live tracking on map

Real-time ground track for satellite SL-8 R/B.

In-orbit conjunctions

A list of the most updated potential collisions computed for object SL-8 R/B.

Target Orbit TCA Probability of collision Miss distance Type
COSMOS 1375 DEB LEO 2025-08-30 11:12:20 0.0004808644 388.0 (m) DEBRIS
SL-14 DEB LEO 2025-01-28 23:25:39 0.0002442865 114.0 (m) DEBRIS

Associated space launch

Navigation satellite providing location information for the Tsiklon-B navigation system

SL-8 R/B was lifted into orbit during the mission ‘Kosmos-3M | Parus 38’, on board a Kosmos-3M space rocket.

The launch took place on May 6, 1983, 3 a.m. from 132/2.

For more information about the launch, click the button.

Launch to space Kosmos-3M | Parus 38
Kosmos-3M | Parus 38

Agency: N/A

Status: Launch Successful

Launch date: May 6, 1983, 3 a.m. UTC

Rocket: Kosmos-3M

Launch pad: 132/2

Location: Plesetsk Cosmodrome, Russian Federation

...

Latest news about this satellite

There are no fresh news available about this satellite. Check back as we update our databases every day.


Newsletter sign-up

Weekly statistics, charts and insights to help you stay on top of the space industry.